Regional Weather Roundup
Issued by NWS

Home | Current Version | Previous Version | Graphics & Text | Print | Product List | Glossary On
Versions: 1 2 3 4 5 6 7 8 9 10 11 12 13 14 15 16 17 18 19 20 21 22 23 24 25 26 27 28 29 30 31 32 33 34 35 36 37 38 39 40 41 42 43 44 45 46 47 48 49 50
768
ASUS45 KABQ 031510
RWRNM
NEW MEXICO REGIONAL WEATHER ROUNDUP
NATIONAL WEATHER SERVICE ALBUQUERQUE NM
800 AM MST SAT DEC 03 2016

NOTE: "FAIR" MEANS FEW OR NO CLOUDS BELOW 12,000 FEET AGL WITH NO
       SIGNIFICANT WEATHER OR OBSTRUCTIONS TO VISION.

      THIS PRODUCT IS RELEASED AS TWO VERSIONS.  ONE VERSION NEAR
      THE TOP OF THE HOUR CONTAINING PRELIMINARY DATA FROM ALBUQUERQUE
      AND OTHER STATIONS.  A FINAL VERSION WITH ADDITIONAL DATA IS
      ISSUED ABOUT 10 MINUTES AFTER THE HOUR.

NMZ501-503-504-510>518-031600-
NORTHWEST PLATEAU/NORTHCENTRAL MOUNTAINS

CITY           SKY/WX    TMP DP  RH WIND       PRES   REMARKS
FARMINGTON     CLOUDY    26  24  92 CALM      30.15R
LOS ALAMOS     FAIR      25  23  94 N3        30.09R
SANTA FE       FAIR      24  21  88 N7        30.08R WCI  16
TAOS           MOCLDY    21  10  63 N9        30.12R WCI  11
ANGEL FIRE     FOG       17  15  95 CALM      30.09S VSB 1/2

$$
NMZ402-403-502-505>509-031600-
WESTCENTRAL MOUNTAINS/SOUTHWEST MOUNTAINS

CITY           SKY/WX    TMP DP  RH WIND       PRES   REMARKS
GALLUP         CLOUDY    29  24  82 E13       30.12R WCI  19
GRANTS         FAIR      23  21  92 NW9       30.13R WCI  13
SILVER CITY    CLOUDY    37  35  94 CALM      29.98R

$$
NMZ407-409-411-412-031600-
SOUTHERN DESERTS

CITY           SKY/WX    TMP DP  RH WIND       PRES   REMARKS
DEMING         LGT RAIN  37  34  89 NE23G30   29.99R WCI  26
LAS CRUCES     CLOUDY    36  32  84 N17       29.99R WCI  26
HOLLOMAN AFB   CLOUDY    39  30  69 NW7       30.04R WCI  34
T OR C         CLOUDY    38  26  62 NE20G26   30.03R WCI  28

$$
NMZ519>523-031600-
CENTRAL VALLEYS/CENTRAL HIGHLANDS

CITY           SKY/WX    TMP DP  RH WIND       PRES   REMARKS
ALBUQUERQUE    FLURRIES  32  31  96 N5        30.11R WCI  27
DOUBLE EAGLE   MOCLDY    28  27  93 N8        30.10R WCI  20
MORIARTY ARPT  CLOUDY    28  24  87 CALM      30.11R
CLINES CORNERS CLOUDY    24  20  84 CALM      30.08R
BELEN          CLOUDY    31  31 100 NW5       30.11R WCI  27
SOCORRO        FAIR      33  30  88 N7        30.11R WCI  27

$$
NMZ524>526-539-540-031600-
SOUTHCENTRAL MOUNTAINS

CITY           SKY/WX    TMP DP  RH WIND       PRES   REMARKS
RUIDOSO        LGT SNOW  25  25 100 S3        30.08S VSB 3/4

$$
NMZ527>531-031600-
NORTHEAST HIGHLANDS/NORTHEAST PLAINS

CITY           SKY/WX    TMP DP  RH WIND       PRES   REMARKS
LAS VEGAS      FAIR      21  18  88 CALM      30.07F
RATON          FAIR      21  16  81 N6        30.05F WCI  13
CLAYTON        CLOUDY    30  30 100 CALM      30.10R

$$
NMZ532>537-031600-
EASTCENTRAL PLAINS

CITY           SKY/WX    TMP DP  RH WIND       PRES   REMARKS
TUCUMCARI      CLOUDY    33  30  88 NE6       30.13R WCI  28
CANNON AFB     DRIZZLE   32  32 100 NE12      30.12R WCI  23
CLOVIS AIRPORT CLOUDY    32  28  86 N14G20    30.11R WCI  22

$$
NMZ028-029-538-031600-
SOUTHEAST PLAINS

CITY           SKY/WX    TMP DP  RH WIND       PRES   REMARKS
ROSWELL        CLOUDY    35  32  88 N10       30.13R WCI  27
ARTESIA        LGT RAIN  34  34 100 N16       30.12S WCI  23
CARLSBAD       LGT RAIN  36  36 100 NW18      30.10R FOG     WCI  26
HOBBS          LGT RAIN  39  39 100 N10       30.08R WCI  32


$$




USA.gov is the U.S. government's official web portal to all federal, state and local government web resources and services.